Powrót do katalogu

METEOR 2-5 DEB

AktywnyPO
NORAD 45513·DEBRIS·🇷🇺 Russia

Wystrzelony Oct 31, 1979 z Plesetsk Cosmodrome

Loading…

Następne Przeloty (najbliższe 24 godziny)

TLE

NieaktualneSource: Space-Track

Epoka: Aug 30, 2026, 06:21 UTC

1 45513U 79095CV  26242.26514815  .00004276  00000-0  13532-2 0  9991
2 45513  81.1939  75.0360 0007630 197.6459 162.4464 14.40007924675218

Śledź METEOR 2-5 DEB w czasie rzeczywistym z AllMySat

Download on the App Store